GFSNGP_925_temp_252.txt.gz
Temp
-1 -3 -1 -2 -3 -3 -4 -5 -5 -5 -4 -6 -6 -6 -5 -5 -5 -5 -5 -5 -5 -5 -4 -5 -5 -5 -4 -4 -4 -3 -3 -3 -3 -2 -3 -4 -3 -2 -2 -0 1 2 3 4
-1 -1 -1 -3 -3 -3 -3 -4 -3 -4 -6 -6 -5 -5 -5 -6 -5 -6 -6 -6 -5 -5 -5 -5 -5 -5 -5 -5 -5 -4 -4 -4 -3 -2 -2 -3 -3 -3 -2 -2 0 1 1 2
-2 -1 -2 -3 -5 -4 -3 -5 -5 -6 -6 -5 -6 -6 -6 -6 -6 -6 -6 -6 -6 -6 -6 -6 -6 -6 -6 -6 -5 -5 -5 -4 -3 -3 -2 -2 -2 -2 -3 -2 -0 -0 0 1
-3 -2 -5 -5 -3 -3 -3 -5 -6 -6 -6 -6 -7 -6 -6 -6 -7 -7 -7 -6 -6 -6 -6 -7 -7 -7 -7 -6 -6 -6 -5 -4 -4 -4 -3 -2 -2 -2 -2 -1 -1 -1 -0 -0
-4 -5 -3 -4 -5 -5 -5 -5 -7 -7 -7 -7 -7 -7 -6 -5 -7 -7 -7 -7 -7 -7 -7 -7 -7 -7 -7 -7 -7 -6 -6 -5 -5 -5 -4 -3 -3 -2 -2 -2 -1 -1 -0 -1
-5 -6 -4 -7 -5 -5 -5 -7 -7 -7 -7 -8 -8 -9 -7 -7 -7 -7 -7 -7 -7 -7 -7 -8 -8 -7 -7 -7 -7 -7 -6 -6 -6 -5 -5 -4 -3 -3 -2 -2 -2 -1 -1 -0
-6 -8 -8 -7 -6 -5 -6 -7 -7 -7 -7 -8 -8 -8 -8 -7 -7 -7 -7 -7 -7 -8 -8 -8 -8 -8 -8 -7 -7 -7 -7 -7 -6 -6 -5 -5 -4 -3 -2 -2 -2 -1 -1 -0
-6 -6 -7 -6 -6 -8 -9 -8 -8 -8 -8 -8 -8 -8 -7 -7 -7 -7 -8 -8 -8 -8 -8 -8 -8 -8 -8 -8 -7 -7 -7 -7 -7 -6 -6 -5 -4 -3 -3 -2 -2 -2 -1 -0
-9 -6 -6 -5 -7 -7 -8 -8 -8 -8 -8 -8 -8 -8 -8 -7 -8 -8 -8 -8 -8 -8 -8 -8 -8 -8 -8 -8 -8 -8 -8 -7 -7 -6 -6 -5 -4 -4 -3 -2 -2 -2 -1 0
-8 -7 -7 -6 -7 -7 -7 -8 -8 -8 -8 -8 -9 -8 -8 -8 -8 -8 -8 -8 -8 -8 -8 -8 -8 -8 -8 -8 -8 -8 -8 -7 -7 -6 -5 -4 -4 -4 -3 -3 -3 -2 -1 0
-9 -8 -7 -6 -7 -8 -8 -8 -8 -8 -9 -9 -9 -8 -8 -8 -8 -9 -8 -8 -8 -8 -8 -8 -8 -8 -8 -8 -8 -7 -7 -6 -6 -6 -5 -5 -4 -4 -3 -2 -2 -2 -1 -0
-10 -9 -9 -9 -9 -8 -9 -9 -9 -9 -9 -9 -9 -9 -9 -9 -9 -9 -8 -9 -9 -9 -8 -8 -8 -8 -8 -7 -7 -7 -6 -6 -6 -5 -5 -5 -4 -3 -2 -2 -1 -1 -1 -0
-10 -10 -9 -9 -8 -9 -9 -9 -10 -9 -9 -9 -10 -10 -10 -10 -10 -8 -9 -9 -9 -9 -9 -9 -8 -8 -7 -7 -7 -6 -6 -6 -6 -5 -6 -5 -5 -4 -4 -3 -2 -1 -1 -0
-9 -11 -10 -9 -10 -10 -10 -10 -10 -10 -10 -10 -10 -10 -10 -10 -10 -9 -9 -9 -9 -9 -9 -8 -8 -7 -7 -7 -7 -7 -7 -6 -6 -6 -6 -5 -4 -4 -4 -4 -3 -2 -1 -0
-9 -10 -10 -10 -10 -10 -11 -11 -11 -10 -10 -11 -11 -11 -11 -10 -10 -10 -10 -10 -10 -9 -8 -8 -7 -7 -7 -7 -6 -6 -6 -6 -6 -6 -5 -4 -4 -4 -3 -3 -3 -2 -2 -0
-10 -10 -10 -11 -11 -11 -11 -11 -11 -11 -11 -11 -11 -11 -11 -11 -11 -10 -10 -10 -10 -10 -9 -8 -8 -7 -7 -7 -7 -7 -6 -6 -4 -4 -4 -4 -4 -3 -3 -3 -2 -2 -1 -1
-12 -11 -12 -12 -12 -12 -12 -12 -12 -12 -12 -12 -12 -12 -11 -11 -11 -11 -11 -11 -10 -9 -8 -8 -8 -7 -7 -6 -7 -7 -7 -5 -3 -3 -3 -3 -3 -3 -3 -2 -2 -2 -2 -2
-12 -12 -12 -13 -13 -13 -13 -13 -12 -13 -13 -13 -12 -12 -12 -12 -12 -12 -11 -11 -10 -9 -8 -8 -6 -7 -7 -6 -7 -7 -7 -7 -6 -5 -4 -3 -3 -3 -3 -3 -3 -3 -3 -3
-12 -13 -13 -13 -13 -13 -13 -13 -13 -13 -12 -13 -12 -12 -12 -12 -12 -12 -12 -11 -10 -10 -8 -8 -7 -7 -7 -7 -7 -7 -7 -7 -7 -6 -6 -6 -5 -5 -5 -5 -5 -5 -5 -5
-13 -13 -13 -13 -13 -13 -13 -13 -13 -13 -12 -12 -12 -13 -13 -12 -12 -12 -12 -11 -11 -11 -9 -8 -7 -7 -7 -7 -7 -7 -7 -7 -7 -7 -7 -7 -7 -7 -6 -6 -6 -6 -6 -6
-13 -13 -13 -13 -13 -12 -12 -13 -13 -13 -12 -12 -12 -13 -13 -12 -12 -12 -12 -12 -11 -9 -9 -9 -7 -7 -7 -7 -8 -8 -7 -7 -7 -7 -7 -7 -7 -7 -7 -7 -7 -7 -7 -6
-13 -14 -13 -13 -13 -12 -12 -12 -12 -12 -12 -12 -12 -12 -12 -12 -12 -12 -12 -12 -11 -9 -9 -9 -7 -7 -8 -7 -8 -8 -8 -7 -7 -7 -7 -7 -7 -8 -8 -7 -7 -7 -7 -7
-13 -13 -13 -12 -13 -12 -12 -12 -12 -13 -12 -12 -12 -13 -13 -13 -12 -13 -12 -12 -11 -10 -10 -9 -8 -8 -9 -8 -9 -8 -8 -8 -7 -7 -7 -7 -7 -7 -7 -8 -7 -7 -7 -7
-12 -12 -12 -12 -12 -12 -13 -12 -12 -13 -12 -12 -12 -12 -13 -13 -12 -12 -12 -12 -12 -10 -11 -10 -9 -9 -8 -9 -9 -9 -9 -8 -8 -7 -7 -7 -7 -7 -7 -7 -7 -7 -7 -7
-12 -12 -12 -12 -13 -13 -13 -13 -13 -13 -13 -12 -12 -12 -12 -12 -13 -12 -12 -12 -12 -12 -10 -10 -11 -10 -9 -9 -9 -10 -9 -9 -8 -7 -7 -7 -7 -7 -7 -7 -7 -7 -7 -8
-12 -12 -12 -13 -13 -13 -13 -13 -13 -13 -13 -13 -13 -12 -12 -12 -12 -12 -12 -11 -11 -11 -11 -11 -12 -10 -10 -9 -9 -9 -9 -9 -9 -8 -7 -7 -6 -6 -7 -7 -6 -7 -7 -7
-12 -12 -12 -13 -13 -13 -13 -13 -13 -14 -13 -13 -13 -12 -12 -12 -13 -13 -12 -12 -12 -12 -12 -11 -11 -11 -11 -10 -9 -9 -8 -8 -8 -8 -6 -6 -6 -6 -6 -6 -7 -6 -6 -6

GFSNGP_925_temp_258.txt.gz
Temp
-3 -3 -3 -3 -3 -4 -4 -5 -5 -5 -5 -6 -8 -7 -7 -7 -7 -7 -7 -6 -7 -7 -7 -7 -7 -7 -7 -7 -7 -7 -7 -7 -6 -6 -6 -6 -5 -4 -4 -4 -3 -3 -2 -0
-3 -2 -2 -3 -4 -4 -4 -4 -5 -5 -6 -8 -7 -7 -7 -7 -7 -7 -7 -7 -7 -7 -7 -8 -8 -8 -8 -8 -8 -8 -8 -7 -7 -6 -6 -6 -5 -5 -4 -4 -4 -3 -3 -2
-4 -2 -4 -5 -6 -5 -5 -4 -5 -7 -8 -7 -7 -7 -7 -7 -7 -7 -7 -7 -7 -8 -8 -8 -8 -8 -8 -8 -8 -8 -8 -7 -7 -6 -6 -6 -6 -5 -4 -4 -4 -4 -3 -3
-5 -4 -6 -6 -4 -4 -5 -4 -7 -7 -7 -7 -8 -7 -7 -7 -7 -8 -8 -8 -8 -8 -8 -8 -8 -9 -9 -9 -8 -8 -8 -7 -7 -7 -7 -6 -6 -6 -5 -4 -4 -4 -4 -4
-5 -7 -4 -6 -6 -6 -7 -6 -8 -8 -8 -8 -7 -8 -7 -6 -7 -8 -8 -8 -8 -8 -8 -8 -9 -9 -9 -9 -9 -8 -8 -8 -7 -7 -7 -7 -6 -6 -5 -5 -5 -4 -4 -4
-6 -7 -5 -8 -7 -6 -7 -8 -8 -8 -9 -8 -8 -9 -8 -7 -8 -8 -8 -8 -8 -8 -8 -9 -9 -9 -9 -9 -9 -8 -8 -8 -8 -8 -7 -7 -7 -6 -6 -5 -5 -5 -5 -3
-8 -9 -7 -8 -7 -7 -6 -7 -8 -8 -9 -9 -9 -9 -8 -8 -8 -8 -8 -8 -8 -9 -9 -8 -9 -9 -9 -8 -8 -8 -8 -8 -8 -8 -8 -8 -7 -6 -6 -5 -5 -4 -4 -3
-8 -8 -9 -8 -7 -7 -9 -8 -8 -9 -9 -9 -9 -9 -8 -8 -8 -8 -8 -9 -9 -9 -9 -9 -9 -9 -9 -8 -8 -8 -8 -8 -8 -8 -8 -7 -7 -6 -6 -5 -5 -4 -4 -3
-9 -7 -7 -7 -7 -8 -9 -9 -9 -9 -9 -9 -10 -9 -8 -8 -9 -9 -9 -9 -9 -9 -9 -9 -9 -9 -8 -8 -9 -8 -8 -8 -8 -8 -7 -7 -7 -6 -6 -5 -5 -4 -4 -3
-9 -7 -8 -8 -8 -7 -8 -9 -9 -10 -10 -10 -10 -10 -9 -9 -9 -9 -9 -9 -9 -9 -9 -9 -9 -9 -9 -8 -8 -8 -8 -7 -7 -7 -7 -6 -6 -6 -6 -5 -5 -4 -4 -3
-10 -9 -9 -8 -8 -9 -9 -10 -10 -10 -10 -10 -10 -10 -10 -10 -10 -10 -10 -9 -9 -9 -9 -9 -9 -9 -8 -8 -8 -7 -7 -7 -7 -7 -6 -6 -6 -6 -6 -5 -4 -4 -3 -2
-11 -10 -11 -11 -10 -9 -10 -11 -11 -11 -11 -11 -11 -11 -11 -10 -10 -10 -9 -10 -10 -10 -9 -9 -9 -8 -8 -7 -7 -7 -7 -6 -6 -6 -6 -6 -6 -6 -5 -5 -4 -3 -2 -2
-11 -12 -11 -11 -10 -10 -11 -11 -12 -11 -12 -12 -12 -11 -11 -11 -11 -10 -10 -10 -10 -10 -10 -10 -9 -9 -8 -7 -7 -7 -7 -7 -6 -6 -6 -6 -6 -6 -6 -4 -3 -3 -2 -2
-11 -12 -12 -10 -11 -11 -12 -12 -12 -12 -12 -12 -12 -12 -12 -12 -11 -11 -11 -11 -11 -11 -10 -9 -9 -8 -8 -7 -7 -7 -7 -6 -6 -6 -6 -6 -6 -6 -6 -5 -5 -3 -2 -2
-11 -11 -11 -11 -11 -12 -12 -13 -13 -13 -13 -13 -13 -13 -12 -13 -12 -12 -11 -11 -12 -11 -10 -10 -9 -8 -7 -7 -7 -7 -7 -6 -4 -4 -5 -5 -5 -5 -4 -4 -4 -4 -3 -1
-12 -11 -11 -12 -12 -12 -13 -14 -14 -14 -13 -13 -13 -13 -13 -13 -12 -12 -12 -12 -12 -12 -11 -10 -8 -8 -8 -7 -7 -7 -7 -7 -5 -5 -4 -4 -4 -5 -4 -4 -3 -4 -3 -3
-15 -14 -13 -13 -13 -14 -14 -14 -14 -14 -14 -14 -15 -14 -14 -13 -13 -13 -13 -12 -12 -11 -10 -9 -9 -7 -8 -7 -8 -8 -7 -7 -6 -7 -6 -6 -6 -5 -5 -5 -5 -5 -5 -4
-13 -13 -13 -14 -14 -14 -14 -14 -14 -14 -15 -15 -15 -15 -14 -14 -14 -14 -13 -12 -12 -11 -9 -9 -8 -7 -8 -7 -7 -8 -7 -7 -7 -7 -7 -7 -7 -6 -6 -6 -6 -6 -6 -6
-13 -13 -13 -14 -13 -13 -13 -14 -14 -14 -14 -14 -15 -15 -14 -14 -13 -13 -13 -13 -12 -12 -10 -9 -8 -8 -8 -8 -8 -8 -8 -7 -7 -7 -7 -7 -7 -7 -7 -7 -7 -7 -7 -7
-13 -13 -13 -13 -13 -13 -14 -13 -14 -14 -13 -14 -14 -13 -14 -13 -13 -13 -13 -13 -13 -12 -9 -9 -8 -8 -8 -8 -8 -8 -8 -8 -8 -7 -7 -8 -7 -8 -8 -7 -7 -8 -7 -7
-14 -14 -14 -14 -14 -13 -13 -13 -14 -14 -13 -13 -14 -14 -14 -13 -13 -13 -13 -13 -12 -11 -10 -9 -8 -8 -9 -9 -8 -8 -9 -8 -8 -8 -7 -8 -8 -8 -8 -8 -8 -8 -8 -8
-13 -14 -14 -13 -14 -13 -13 -13 -13 -13 -13 -13 -13 -13 -13 -13 -13 -13 -13 -13 -13 -11 -10 -10 -9 -8 -9 -9 -9 -9 -9 -9 -8 -8 -8 -8 -8 -8 -8 -8 -8 -8 -8 -8
-13 -13 -13 -13 -13 -13 -13 -13 -13 -13 -13 -13 -13 -13 -14 -13 -13 -14 -14 -13 -13 -10 -11 -11 -9 -9 -9 -8 -9 -10 -10 -9 -9 -8 -8 -7 -7 -7 -7 -7 -8 -8 -8 -8
-12 -12 -13 -13 -13 -13 -13 -13 -13 -13 -13 -13 -13 -13 -13 -14 -12 -13 -14 -13 -13 -11 -12 -12 -10 -10 -9 -9 -9 -10 -10 -10 -9 -9 -8 -7 -7 -7 -7 -7 -7 -7 -7 -8
-12 -12 -13 -13 -13 -13 -13 -13 -13 -13 -13 -13 -12 -13 -13 -13 -14 -13 -13 -13 -13 -13 -12 -12 -12 -12 -10 -10 -10 -10 -10 -10 -10 -9 -8 -8 -8 -7 -7 -7 -7 -7 -7 -7
-12 -12 -12 -13 -13 -13 -13 -13 -13 -13 -13 -13 -13 -13 -13 -13 -13 -13 -13 -13 -12 -12 -12 -12 -13 -12 -12 -11 -10 -10 -10 -9 -9 -9 -8 -7 -7 -7 -7 -7 -6 -6 -7 -7
-12 -12 -12 -13 -13 -13 -13 -13 -13 -14 -13 -13 -13 -13 -13 -13 -13 -13 -13 -13 -13 -13 -12 -12 -13 -13 -13 -12 -11 -10 -10 -9 -9 -9 -8 -8 -7 -7 -6 -6 -6 -6 -6 -6

GFSNGP_925_temp_264.txt.gz
Temp
1 1 1 -0 -0 -1 -2 -2 -3 -1 -2 -1 -4 -4 -3 -4 -4 -4 -4 -4 -4 -4 -5 -5 -5 -5 -6 -6 -6 -6 -6 -6 -6 -6 -6 -6 -6 -6 -6 -6 -6 -5 -4 -4
0 1 0 -1 -1 -2 -2 -1 -2 -2 -2 -3 -3 -3 -4 -4 -4 -5 -5 -5 -5 -5 -5 -5 -6 -6 -6 -6 -6 -7 -7 -7 -6 -6 -6 -6 -6 -6 -7 -6 -6 -5 -4 -4
-0 0 0 -1 -2 -3 -3 -2 -2 -3 -3 -4 -4 -5 -5 -5 -5 -5 -6 -6 -5 -6 -6 -6 -6 -6 -7 -7 -7 -7 -7 -7 -7 -6 -6 -6 -6 -6 -6 -6 -6 -5 -4 -4
-1 -0 -1 -3 -3 -3 -3 -3 -2 -4 -5 -5 -5 -5 -5 -4 -5 -6 -6 -6 -6 -7 -7 -7 -7 -7 -7 -7 -7 -7 -7 -7 -6 -6 -6 -6 -6 -6 -6 -6 -6 -5 -5 -4
-1 -1 0 -4 -3 -4 -5 -4 -5 -6 -5 -5 -6 -6 -3 -4 -6 -6 -7 -7 -7 -7 -7 -7 -7 -7 -7 -7 -7 -7 -7 -6 -6 -7 -7 -6 -6 -6 -6 -6 -6 -5 -4 -4
-2 -2 -2 -3 -4 -4 -5 -5 -6 -6 -6 -7 -7 -7 -5 -6 -7 -7 -7 -7 -8 -8 -7 -7 -7 -8 -8 -7 -7 -7 -7 -7 -7 -7 -7 -6 -6 -6 -6 -6 -6 -5 -5 -4
-1 -2 -1 -4 -4 -5 -5 -5 -6 -6 -7 -7 -8 -7 -7 -7 -7 -7 -8 -8 -8 -8 -8 -8 -8 -8 -8 -7 -7 -7 -7 -7 -7 -6 -7 -7 -6 -6 -6 -6 -5 -5 -5 -4
-3 -3 -3 -5 -4 -5 -6 -6 -6 -7 -7 -8 -8 -8 -7 -7 -7 -8 -8 -8 -8 -8 -8 -8 -8 -8 -8 -8 -7 -7 -7 -7 -6 -6 -6 -6 -6 -6 -6 -5 -5 -5 -5 -4
-2 -1 -4 -5 -5 -5 -7 -7 -7 -8 -8 -8 -9 -8 -8 -8 -8 -8 -8 -8 -8 -8 -8 -8 -9 -9 -8 -8 -8 -7 -7 -6 -6 -6 -6 -6 -5 -5 -5 -5 -5 -4 -4 -3
-4 -4 -5 -5 -6 -6 -7 -7 -7 -8 -9 -9 -9 -9 -9 -9 -9 -9 -9 -9 -9 -9 -9 -9 -9 -9 -9 -8 -7 -7 -6 -6 -5 -5 -5 -5 -5 -5 -5 -5 -5 -4 -4 -3
-5 -4 -5 -6 -6 -7 -8 -8 -8 -9 -9 -9 -9 -10 -9 -10 -10 -10 -9 -9 -9 -9 -9 -9 -9 -9 -8 -8 -7 -7 -6 -5 -5 -5 -5 -5 -5 -5 -5 -5 -4 -4 -3 -3
-3 -6 -8 -7 -7 -8 -9 -9 -9 -10 -11 -10 -10 -11 -11 -11 -10 -10 -10 -10 -10 -10 -10 -10 -9 -9 -8 -8 -7 -7 -6 -5 -5 -4 -5 -5 -5 -4 -4 -5 -4 -3 -3 -2
-6 -9 -9 -8 -8 -9 -9 -10 -11 -11 -11 -12 -12 -12 -12 -11 -11 -10 -10 -10 -11 -11 -11 -10 -10 -9 -8 -7 -7 -7 -7 -5 -5 -5 -4 -5 -5 -4 -4 -4 -4 -3 -3 -2
-9 -10 -9 -8 -9 -10 -10 -11 -11 -11 -11 -12 -12 -12 -12 -11 -11 -11 -11 -12 -11 -11 -10 -10 -10 -9 -8 -8 -7 -7 -7 -5 -5 -5 -5 -4 -4 -4 -4 -3 -3 -3 -3 -3
-9 -10 -10 -10 -10 -10 -11 -11 -11 -11 -11 -12 -12 -12 -12 -13 -13 -12 -12 -12 -12 -11 -11 -11 -10 -9 -8 -8 -8 -8 -7 -6 -6 -6 -5 -5 -5 -4 -4 -4 -4 -4 -3 -3
-9 -10 -10 -10 -10 -11 -11 -12 -12 -12 -12 -12 -13 -13 -14 -13 -12 -12 -12 -13 -13 -12 -12 -11 -10 -9 -9 -8 -8 -8 -8 -6 -6 -6 -6 -6 -6 -5 -5 -5 -5 -5 -4 -4
-12 -10 -11 -11 -11 -12 -12 -12 -12 -12 -12 -13 -14 -14 -14 -13 -13 -13 -13 -13 -13 -13 -12 -11 -11 -8 -9 -8 -8 -9 -8 -7 -6 -7 -6 -6 -6 -6 -6 -6 -6 -6 -6 -5
-13 -13 -13 -13 -13 -13 -13 -12 -12 -13 -14 -14 -15 -15 -15 -15 -15 -14 -14 -13 -12 -12 -10 -10 -9 -9 -9 -9 -8 -9 -9 -8 -7 -7 -7 -7 -7 -7 -6 -6 -6 -6 -6 -6
-13 -14 -14 -14 -14 -14 -13 -13 -13 -14 -14 -15 -15 -15 -15 -15 -15 -14 -14 -13 -13 -12 -11 -10 -9 -9 -9 -9 -9 -9 -9 -9 -8 -8 -7 -7 -7 -7 -7 -7 -7 -7 -7 -7
-13 -13 -13 -13 -13 -13 -13 -13 -14 -14 -14 -15 -15 -14 -15 -14 -14 -13 -14 -14 -13 -13 -10 -10 -9 -9 -9 -9 -9 -10 -10 -9 -8 -8 -7 -7 -7 -7 -7 -8 -8 -8 -8 -8
-13 -13 -14 -14 -14 -14 -14 -14 -14 -14 -14 -14 -15 -15 -15 -14 -13 -14 -13 -12 -13 -12 -10 -10 -10 -9 -9 -9 -9 -10 -10 -10 -9 -9 -9 -8 -7 -7 -7 -7 -8 -8 -8 -8
-13 -14 -13 -14 -14 -14 -13 -13 -13 -14 -13 -14 -13 -14 -14 -14 -14 -14 -13 -14 -13 -12 -11 -11 -10 -9 -9 -10 -10 -11 -11 -11 -10 -9 -9 -9 -8 -8 -7 -7 -7 -8 -8 -8
-13 -13 -13 -13 -14 -14 -13 -13 -13 -13 -13 -13 -13 -14 -14 -14 -14 -14 -13 -13 -13 -11 -12 -12 -10 -10 -11 -10 -10 -11 -11 -11 -11 -10 -10 -9 -9 -9 -8 -8 -8 -7 -8 -8
-13 -12 -13 -13 -13 -14 -14 -13 -13 -13 -13 -13 -13 -13 -14 -14 -13 -14 -14 -14 -13 -12 -13 -13 -12 -11 -12 -12 -12 -11 -11 -11 -11 -11 -10 -10 -9 -9 -9 -8 -8 -7 -7 -7
-12 -12 -13 -13 -13 -13 -13 -13 -13 -13 -13 -13 -13 -13 -13 -14 -14 -14 -14 -14 -14 -13 -13 -13 -13 -13 -13 -13 -13 -12 -11 -11 -12 -11 -11 -10 -9 -9 -8 -8 -8 -7 -7 -7
-12 -12 -12 -12 -13 -13 -13 -13 -12 -13 -13 -13 -13 -13 -13 -13 -13 -14 -14 -14 -13 -14 -13 -13 -14 -14 -14 -14 -13 -12 -12 -11 -11 -11 -10 -10 -9 -8 -8 -7 -7 -7 -7 -7
-12 -12 -12 -12 -13 -13 -13 -13 -13 -13 -14 -13 -13 -13 -13 -13 -13 -14 -14 -14 -13 -13 -14 -14 -14 -15 -14 -14 -13 -12 -12 -11 -11 -11 -10 -9 -8 -8 -7 -7 -6 -6 -6 -7

GFSNGP_925_temp_267.txt.gz
Temp
3 2 2 2 2 1 1 1 -1 0 -0 0 -0 -1 -2 -2 -2 -3 -3 -3 -3 -3 -4 -4 -4 -5 -5 -5 -5 -5 -5 -6 -6 -6 -6 -6 -6 -6 -6 -6 -6 -6 -5 -5
2 3 3 1 2 2 0 0 0 0 -0 1 -1 -1 -2 -3 -3 -3 -3 -4 -4 -4 -5 -5 -5 -5 -5 -6 -5 -5 -6 -6 -6 -6 -6 -6 -5 -5 -5 -5 -5 -6 -5 -5
1 3 2 1 1 1 -0 -0 -0 -2 -1 -1 -2 -3 -3 -4 -3 -4 -4 -5 -5 -5 -5 -5 -5 -6 -6 -6 -6 -6 -6 -6 -6 -6 -6 -5 -5 -6 -6 -5 -5 -6 -6 -5
0 2 0 -1 -1 -1 -2 -1 -0 -1 -2 -3 -3 -3 -4 -3 -4 -5 -5 -5 -5 -6 -6 -6 -6 -6 -6 -6 -6 -6 -6 -6 -6 -6 -6 -6 -6 -6 -6 -5 -5 -6 -5 -5
0 1 2 -2 -2 -2 -3 -3 -2 -4 -4 -4 -4 -4 -3 -3 -5 -5 -5 -5 -6 -6 -6 -6 -6 -7 -7 -7 -7 -7 -6 -6 -6 -6 -6 -6 -6 -6 -6 -5 -5 -5 -5 -5
1 -1 -1 -0 -2 -2 -3 -3 -4 -4 -4 -5 -5 -6 -5 -5 -5 -5 -6 -6 -6 -6 -6 -6 -7 -7 -8 -7 -7 -7 -7 -7 -7 -7 -6 -6 -6 -6 -6 -6 -5 -5 -5 -5
0 0 1 -1 -3 -3 -3 -4 -4 -4 -5 -6 -7 -6 -6 -6 -6 -6 -6 -6 -6 -6 -7 -7 -7 -8 -8 -8 -7 -7 -7 -7 -7 -6 -6 -6 -6 -6 -6 -5 -5 -5 -5 -5
0 -1 -1 -2 -3 -4 -5 -5 -5 -5 -6 -7 -7 -6 -6 -6 -6 -6 -7 -7 -7 -7 -7 -7 -8 -8 -8 -8 -8 -8 -7 -6 -6 -5 -5 -5 -5 -5 -5 -5 -5 -5 -5 -4
-0 -0 -2 -2 -3 -3 -5 -6 -5 -6 -6 -7 -7 -7 -7 -6 -7 -7 -8 -8 -7 -8 -8 -7 -8 -8 -8 -8 -8 -7 -6 -6 -5 -5 -5 -5 -5 -5 -5 -5 -5 -4 -4 -4
-3 -1 -2 -3 -3 -4 -5 -6 -6 -6 -7 -7 -8 -8 -7 -7 -8 -8 -8 -8 -8 -8 -8 -8 -9 -9 -9 -8 -7 -7 -6 -6 -5 -5 -4 -4 -5 -5 -5 -5 -5 -4 -4 -3
-2 -1 -2 -4 -4 -5 -6 -6 -6 -7 -8 -8 -8 -8 -8 -9 -9 -9 -9 -9 -8 -9 -9 -9 -9 -9 -8 -8 -7 -7 -6 -6 -5 -4 -4 -4 -4 -4 -4 -4 -4 -4 -4 -3
-2 -4 -6 -5 -5 -6 -7 -7 -8 -8 -9 -9 -9 -9 -10 -10 -10 -9 -9 -9 -9 -10 -10 -10 -9 -9 -8 -8 -7 -7 -6 -6 -5 -5 -4 -4 -4 -4 -4 -4 -3 -3 -3 -2
-4 -6 -6 -6 -6 -7 -8 -8 -9 -9 -10 -10 -10 -10 -10 -10 -10 -9 -9 -10 -11 -11 -10 -10 -10 -9 -8 -8 -8 -7 -7 -6 -5 -5 -5 -4 -4 -3 -3 -3 -3 -3 -3 -2
-5 -8 -7 -6 -7 -8 -9 -9 -10 -10 -9 -10 -10 -10 -10 -10 -11 -11 -11 -11 -11 -11 -10 -10 -11 -9 -9 -8 -8 -7 -7 -6 -6 -5 -5 -5 -5 -4 -4 -4 -4 -4 -4 -3
-6 -7 -8 -8 -8 -8 -9 -9 -10 -10 -10 -10 -10 -10 -11 -12 -12 -12 -11 -11 -12 -12 -11 -11 -10 -9 -9 -9 -8 -7 -7 -6 -6 -6 -6 -5 -5 -5 -5 -5 -5 -5 -4 -4
-7 -7 -8 -8 -8 -9 -10 -10 -11 -11 -11 -11 -11 -12 -13 -12 -12 -11 -11 -12 -13 -13 -12 -12 -10 -10 -9 -9 -8 -8 -8 -7 -6 -6 -6 -6 -6 -6 -5 -5 -5 -5 -5 -5
-10 -8 -8 -9 -9 -10 -11 -11 -11 -11 -11 -11 -13 -13 -13 -13 -13 -12 -13 -13 -13 -13 -12 -11 -11 -9 -9 -9 -8 -9 -8 -8 -6 -6 -6 -6 -6 -6 -6 -6 -6 -6 -6 -5
-10 -11 -11 -12 -12 -12 -12 -11 -11 -11 -12 -13 -13 -14 -14 -15 -15 -15 -14 -14 -13 -12 -11 -10 -10 -9 -9 -9 -8 -9 -9 -8 -7 -7 -7 -6 -7 -7 -7 -7 -7 -7 -7 -7
-11 -12 -12 -13 -13 -12 -12 -11 -12 -12 -13 -14 -14 -15 -15 -14 -14 -14 -14 -14 -13 -12 -11 -11 -9 -9 -9 -9 -8 -10 -9 -9 -8 -8 -7 -7 -7 -7 -7 -7 -7 -7 -7 -7
-11 -11 -12 -12 -12 -12 -12 -12 -13 -14 -14 -14 -15 -15 -15 -14 -14 -14 -14 -14 -12 -13 -11 -11 -10 -9 -9 -9 -9 -10 -10 -10 -9 -8 -8 -7 -7 -7 -7 -7 -7 -7 -8 -8
-11 -12 -12 -12 -13 -13 -13 -13 -14 -14 -14 -14 -14 -14 -15 -14 -13 -14 -13 -12 -12 -12 -10 -11 -10 -9 -9 -9 -10 -11 -11 -10 -10 -9 -9 -8 -8 -8 -7 -7 -7 -7 -7 -8
-12 -13 -13 -13 -14 -13 -13 -13 -13 -14 -14 -13 -13 -14 -14 -13 -13 -13 -12 -13 -13 -12 -11 -12 -11 -9 -9 -10 -11 -11 -11 -11 -11 -10 -9 -9 -9 -8 -8 -8 -7 -7 -7 -8
-12 -13 -13 -13 -14 -13 -13 -13 -13 -13 -13 -13 -13 -14 -14 -14 -13 -13 -13 -13 -12 -11 -11 -13 -11 -10 -10 -11 -12 -12 -12 -11 -11 -10 -10 -10 -9 -9 -9 -8 -7 -7 -6 -7
-12 -13 -13 -13 -13 -14 -13 -12 -13 -13 -13 -13 -13 -13 -13 -13 -13 -13 -13 -13 -13 -12 -12 -12 -11 -11 -12 -13 -13 -12 -12 -12 -11 -11 -11 -10 -10 -9 -9 -9 -8 -7 -7 -8
-12 -12 -13 -13 -13 -12 -12 -12 -12 -11 -12 -12 -12 -12 -13 -13 -13 -14 -13 -13 -13 -13 -13 -13 -13 -12 -13 -13 -13 -13 -13 -13 -12 -11 -11 -10 -10 -10 -9 -8 -8 -8 -7 -7
-12 -12 -11 -12 -12 -12 -12 -12 -12 -11 -12 -12 -12 -12 -13 -13 -14 -13 -13 -13 -14 -14 -14 -14 -14 -13 -14 -14 -14 -14 -13 -13 -12 -12 -11 -10 -10 -10 -9 -8 -7 -7 -7 -7
-11 -11 -11 -11 -11 -12 -12 -12 -11 -12 -12 -12 -12 -12 -13 -13 -13 -13 -13 -14 -14 -14 -14 -14 -14 -14 -14 -14 -14 -14 -13 -13 -13 -13 -11 -10 -9 -9 -9 -7 -7 -6 -6 -6